Location: Berua Church
(35.0423°N, 88.5987°W)
Time: 21:44:22
(UTC+00:00)

COSMO-SKYMED 1 - Pass Details

Date: 08 December 2019
Orbit: 621 x 623 km, 97.9° (Epoch: 19 January)

Event Time Altitude Azimuth Distance (km) Brightness Sun altitude
Exits shadow 23:21:57 - 23° (NNE) 2,788 5.5 -8.2°
Reaches altitude 10° 23:24:01 10° 32° (NNE) 1,997 4.7 -8.5°
Maximum altitude 23:27:58 34° 98° (E) 1,033 3.3 -9.3°
Drops below altitude 10° 23:31:54 10° 163° (SSE) 1,983 5.2 -10.0°
Sets 23:34:14 0° 173° (S) 2,884 6.2 -10.5°
